Year,Month,Day,Hour,Minute,Value (Times are PST for temperature in C)
2016,04,17,00,00,10.40
2016,04,17,00,01,10.40
2016,04,17,00,02,10.40
2016,04,17,00,03,10.40
2016,04,17,00,04,10.40
2016,04,17,00,05,10.40
2016,04,17,00,06,10.40
2016,04,17,00,07,10.40
2016,04,17,00,08,10.30
2016,04,17,00,09,10.30
2016,04,17,00,10,10.30
2016,04,17,00,11,10.30
2016,04,17,00,12,10.30
2016,04,17,00,13,10.30
2016,04,17,00,14,10.30
2016,04,17,00,15,10.30
2016,04,17,00,16,10.30
2016,04,17,00,17,10.30
2016,04,17,00,18,10.30
2016,04,17,00,19,10.30
2016,04,17,00,20,10.30
2016,04,17,00,21,10.20
2016,04,17,00,22,10.20
2016,04,17,00,23,10.20
2016,04,17,00,24,10.20
2016,04,17,00,25,10.20
2016,04,17,00,26,10.20
2016,04,17,00,27,10.20
2016,04,17,00,28,10.20
2016,04,17,00,29,10.10
2016,04,17,00,30,10.10
2016,04,17,00,31,10.10
2016,04,17,00,32,10.10
2016,04,17,00,33,10.10
2016,04,17,00,34,10.10
2016,04,17,00,35,10.00
2016,04,17,00,36,10.00
2016,04,17,00,37,10.00
2016,04,17,00,38,9.90
2016,04,17,00,39,9.90
2016,04,17,00,40,9.90
2016,04,17,00,41,9.90
2016,04,17,00,42,9.90
2016,04,17,00,43,9.80
2016,04,17,00,44,9.80
2016,04,17,00,45,9.80
2016,04,17,00,46,9.70
2016,04,17,00,47,9.70
2016,04,17,00,48,9.70
2016,04,17,00,49,9.60
2016,04,17,00,50,9.60
2016,04,17,00,51,9.50
2016,04,17,00,52,9.50
2016,04,17,00,53,9.40
2016,04,17,00,54,9.40
2016,04,17,00,55,9.30
2016,04,17,00,56,9.30
2016,04,17,00,57,9.30
2016,04,17,00,58,9.20
2016,04,17,00,59,9.20
2016,04,17,01,00,9.20
2016,04,17,01,01,9.20
2016,04,17,01,02,9.20
2016,04,17,01,03,9.10
2016,04,17,01,04,9.10
2016,04,17,01,05,9.10
2016,04,17,01,06,9.10
2016,04,17,01,07,9.10
2016,04,17,01,08,9.00
2016,04,17,01,09,9.00
2016,04,17,01,10,9.00
2016,04,17,01,11,9.10
2016,04,17,01,12,9.10
2016,04,17,01,13,9.20
2016,04,17,01,14,9.20
2016,04,17,01,15,9.30
2016,04,17,01,16,9.30
2016,04,17,01,17,9.30
2016,04,17,01,18,9.30
2016,04,17,01,19,9.30
2016,04,17,01,20,9.30
2016,04,17,01,21,9.30
2016,04,17,01,22,9.30
2016,04,17,01,23,9.30
2016,04,17,01,24,9.30
2016,04,17,01,25,9.30
2016,04,17,01,26,9.30
2016,04,17,01,27,9.30
2016,04,17,01,28,9.30
2016,04,17,01,29,9.30
2016,04,17,01,30,9.30
2016,04,17,01,31,9.30
2016,04,17,01,32,9.20
2016,04,17,01,33,9.20
2016,04,17,01,34,9.20
2016,04,17,01,35,9.20
2016,04,17,01,36,9.20
2016,04,17,01,37,9.20
2016,04,17,01,38,9.20
2016,04,17,01,39,9.20
2016,04,17,01,40,9.30
2016,04,17,01,41,9.30
2016,04,17,01,42,9.30
2016,04,17,01,43,9.40
2016,04,17,01,44,9.40
2016,04,17,01,45,9.50
2016,04,17,01,46,9.60
2016,04,17,01,47,9.60
2016,04,17,01,48,9.70
2016,04,17,01,49,9.80
2016,04,17,01,50,9.80
2016,04,17,01,51,9.90
2016,04,17,01,52,9.90
2016,04,17,01,53,10.00
2016,04,17,01,54,10.00
2016,04,17,01,55,10.10
2016,04,17,01,56,10.10
2016,04,17,01,57,10.10
2016,04,17,01,58,10.10
2016,04,17,01,59,10.10
2016,04,17,02,00,10.20
2016,04,17,02,01,10.10
2016,04,17,02,02,10.10
2016,04,17,02,03,10.10
2016,04,17,02,04,10.10
2016,04,17,02,05,10.10
2016,04,17,02,06,10.00
2016,04,17,02,07,10.00
2016,04,17,02,08,9.90
2016,04,17,02,09,9.90
2016,04,17,02,10,9.80
2016,04,17,02,11,9.80
2016,04,17,02,12,9.80
2016,04,17,02,13,9.70
2016,04,17,02,14,9.70
2016,04,17,02,15,9.70
2016,04,17,02,16,9.60
2016,04,17,02,17,9.60
2016,04,17,02,18,9.50
2016,04,17,02,19,9.40
2016,04,17,02,20,9.40
2016,04,17,02,21,9.30
2016,04,17,02,22,9.30
2016,04,17,02,23,9.30
2016,04,17,02,24,9.30
2016,04,17,02,25,9.30
2016,04,17,02,26,9.30
2016,04,17,02,27,9.30
2016,04,17,02,28,9.30
2016,04,17,02,29,9.30
2016,04,17,02,30,9.30
2016,04,17,02,31,9.30
2016,04,17,02,32,9.20
2016,04,17,02,33,9.20
2016,04,17,02,34,9.20
2016,04,17,02,35,9.20
2016,04,17,02,36,9.10
2016,04,17,02,37,9.10
2016,04,17,02,38,9.10
2016,04,17,02,39,9.10
2016,04,17,02,40,9.10
2016,04,17,02,41,9.10
2016,04,17,02,42,9.10
2016,04,17,02,43,9.10
2016,04,17,02,44,9.10
2016,04,17,02,45,9.10
2016,04,17,02,46,9.10
2016,04,17,02,47,9.10
2016,04,17,02,48,9.10
2016,04,17,02,49,9.00
2016,04,17,02,50,9.00
2016,04,17,02,51,9.00
2016,04,17,02,52,9.00
2016,04,17,02,53,8.90
2016,04,17,02,54,8.90
2016,04,17,02,55,8.90
2016,04,17,02,56,8.90
2016,04,17,02,57,8.80
2016,04,17,02,58,8.80
2016,04,17,02,59,8.80
2016,04,17,03,00,8.70
2016,04,17,03,01,8.70
2016,04,17,03,02,8.70
2016,04,17,03,03,8.60
2016,04,17,03,04,8.60
2016,04,17,03,05,8.60
2016,04,17,03,06,8.60
2016,04,17,03,07,8.60
2016,04,17,03,08,8.60
2016,04,17,03,09,8.60
2016,04,17,03,10,8.60
2016,04,17,03,11,8.60
2016,04,17,03,12,8.60
2016,04,17,03,13,8.60
2016,04,17,03,14,8.50
2016,04,17,03,15,8.50
2016,04,17,03,16,8.60
2016,04,17,03,17,8.60
2016,04,17,03,18,8.60
2016,04,17,03,19,8.60
2016,04,17,03,20,8.60
2016,04,17,03,21,8.70
2016,04,17,03,22,8.70
2016,04,17,03,23,8.70
2016,04,17,03,24,8.70
2016,04,17,03,25,8.70
2016,04,17,03,26,8.70
2016,04,17,03,27,8.60
2016,04,17,03,28,8.60
2016,04,17,03,29,8.50
2016,04,17,03,30,8.50
2016,04,17,03,31,8.40
2016,04,17,03,32,8.40
2016,04,17,03,33,8.30
2016,04,17,03,34,8.30
2016,04,17,03,35,8.20
2016,04,17,03,36,8.20
2016,04,17,03,37,8.10
2016,04,17,03,38,8.10
2016,04,17,03,39,8.10
2016,04,17,03,40,8.00
2016,04,17,03,41,8.00
2016,04,17,03,42,8.00
2016,04,17,03,43,7.90
2016,04,17,03,44,7.90
2016,04,17,03,45,7.90
2016,04,17,03,46,7.80
2016,04,17,03,47,7.80
2016,04,17,03,48,7.70
2016,04,17,03,49,7.70
2016,04,17,03,50,7.70
2016,04,17,03,51,7.70
2016,04,17,03,52,7.60
2016,04,17,03,53,7.60
2016,04,17,03,54,7.60
2016,04,17,03,55,7.60
2016,04,17,03,56,7.70
2016,04,17,03,57,7.70
2016,04,17,03,58,7.70
2016,04,17,03,59,7.80
2016,04,17,04,00,7.80
2016,04,17,04,01,7.80
2016,04,17,04,02,7.90
2016,04,17,04,03,8.00
2016,04,17,04,04,8.10
2016,04,17,04,05,8.10
2016,04,17,04,06,8.20
2016,04,17,04,07,8.30
2016,04,17,04,08,8.30
2016,04,17,04,09,8.40
2016,04,17,04,10,8.40
2016,04,17,04,11,8.50
2016,04,17,04,12,8.60
2016,04,17,04,13,8.60
2016,04,17,04,14,8.60
2016,04,17,04,15,8.70
2016,04,17,04,16,8.70
2016,04,17,04,17,8.70
2016,04,17,04,18,8.70
2016,04,17,04,19,8.70
2016,04,17,04,20,8.70
2016,04,17,04,21,8.70
2016,04,17,04,22,8.60
2016,04,17,04,23,8.60
2016,04,17,04,24,8.60
2016,04,17,04,25,8.60
2016,04,17,04,26,8.60
2016,04,17,04,27,8.60
2016,04,17,04,28,8.60
2016,04,17,04,29,8.60
2016,04,17,04,30,8.60
2016,04,17,04,31,8.60
2016,04,17,04,32,8.70
2016,04,17,04,33,8.70
2016,04,17,04,34,8.80
2016,04,17,04,35,8.80
2016,04,17,04,36,8.90
2016,04,17,04,37,8.90
2016,04,17,04,38,8.90
2016,04,17,04,39,9.00
2016,04,17,04,40,9.10
2016,04,17,04,41,9.10
2016,04,17,04,42,9.20
2016,04,17,04,43,9.30
2016,04,17,04,44,9.40
2016,04,17,04,45,9.50
2016,04,17,04,46,9.50
2016,04,17,04,47,9.60
2016,04,17,04,48,9.60
2016,04,17,04,49,9.60
2016,04,17,04,50,9.70
2016,04,17,04,51,9.70
2016,04,17,04,52,9.70
2016,04,17,04,53,9.70
2016,04,17,04,54,9.80
2016,04,17,04,55,9.80
2016,04,17,04,56,9.80
2016,04,17,04,57,9.80
2016,04,17,04,58,9.80
2016,04,17,04,59,9.80
2016,04,17,05,00,9.90
2016,04,17,05,01,9.90
2016,04,17,05,02,9.90
2016,04,17,05,03,9.90
2016,04,17,05,04,9.90
2016,04,17,05,05,9.90
2016,04,17,05,06,9.90
2016,04,17,05,07,10.00
2016,04,17,05,08,10.00
2016,04,17,05,09,10.00
2016,04,17,05,10,10.10
2016,04,17,05,11,10.10
2016,04,17,05,12,10.10
2016,04,17,05,13,10.10
2016,04,17,05,14,10.20
2016,04,17,05,15,10.20
2016,04,17,05,16,10.20
2016,04,17,05,17,10.20
2016,04,17,05,18,10.20
2016,04,17,05,19,10.20
2016,04,17,05,20,10.20
2016,04,17,05,21,10.10
2016,04,17,05,22,10.10
2016,04,17,05,23,10.00
2016,04,17,05,24,10.00
2016,04,17,05,25,9.90
2016,04,17,05,26,9.90
2016,04,17,05,27,9.90
2016,04,17,05,28,10.00
2016,04,17,05,29,10.00
2016,04,17,05,30,10.10
2016,04,17,05,31,10.10
2016,04,17,05,32,10.20
2016,04,17,05,33,10.20
2016,04,17,05,34,10.20
2016,04,17,05,35,10.30
2016,04,17,05,36,10.30
2016,04,17,05,37,10.30
2016,04,17,05,38,10.20
2016,04,17,05,39,10.20
2016,04,17,05,40,10.20
2016,04,17,05,41,10.20
2016,04,17,05,42,10.20
2016,04,17,05,43,10.20
2016,04,17,05,44,10.20
2016,04,17,05,45,10.20
2016,04,17,05,46,10.20
2016,04,17,05,47,10.30
2016,04,17,05,48,10.30
2016,04,17,05,49,10.20
2016,04,17,05,50,10.20
2016,04,17,05,51,10.30
2016,04,17,05,52,10.30
2016,04,17,05,53,10.30
2016,04,17,05,54,10.30
2016,04,17,05,55,10.30
2016,04,17,05,56,10.30
2016,04,17,05,57,10.30
2016,04,17,05,58,10.20
2016,04,17,05,59,10.20
2016,04,17,06,00,10.20
2016,04,17,06,01,10.20
2016,04,17,06,02,10.10
2016,04,17,06,03,10.10
2016,04,17,06,04,10.10
2016,04,17,06,05,10.10
2016,04,17,06,06,10.10
2016,04,17,06,07,10.10
2016,04,17,06,08,10.10
2016,04,17,06,09,10.20
2016,04,17,06,10,10.20
2016,04,17,06,11,10.20
2016,04,17,06,12,10.20
2016,04,17,06,13,10.20
2016,04,17,06,14,10.20
2016,04,17,06,15,10.20
2016,04,17,06,16,10.20
2016,04,17,06,17,10.20
2016,04,17,06,18,10.20
2016,04,17,06,19,10.10
2016,04,17,06,20,10.10
2016,04,17,06,21,10.10
2016,04,17,06,22,10.10
2016,04,17,06,23,10.10
2016,04,17,06,24,10.10
2016,04,17,06,25,10.00
2016,04,17,06,26,10.00
2016,04,17,06,27,10.00
2016,04,17,06,28,10.00
2016,04,17,06,29,10.00
2016,04,17,06,30,10.00
2016,04,17,06,31,10.00
2016,04,17,06,32,10.10
2016,04,17,06,33,10.10
2016,04,17,06,34,10.20
2016,04,17,06,35,10.20
2016,04,17,06,36,10.20
2016,04,17,06,37,10.30
2016,04,17,06,38,10.30
2016,04,17,06,39,10.30
2016,04,17,06,40,10.30
2016,04,17,06,41,10.30
2016,04,17,06,42,10.30
2016,04,17,06,43,10.30
2016,04,17,06,44,10.30
2016,04,17,06,45,10.30
2016,04,17,06,46,10.30
2016,04,17,06,47,10.30
2016,04,17,06,48,10.40
2016,04,17,06,49,10.40
2016,04,17,06,50,10.40
2016,04,17,06,51,10.30
2016,04,17,06,52,10.30
2016,04,17,06,53,10.30
2016,04,17,06,54,10.30
2016,04,17,06,55,9.90
2016,04,17,06,55,10.20
2016,04,17,06,56,10.30
2016,04,17,06,57,10.40
2016,04,17,06,58,10.40
2016,04,17,06,59,10.40
2016,04,17,07,00,10.30
2016,04,17,07,01,10.30
2016,04,17,07,02,10.30
2016,04,17,07,03,10.30
2016,04,17,07,04,10.30
2016,04,17,07,05,10.30
2016,04,17,07,06,10.40
2016,04,17,07,07,10.40
2016,04,17,07,08,10.50
2016,04,17,07,09,10.50
2016,04,17,07,10,10.60
2016,04,17,07,11,10.60
2016,04,17,07,12,10.70
2016,04,17,07,13,10.70
2016,04,17,07,14,10.80
2016,04,17,07,15,10.80
2016,04,17,07,16,10.90
2016,04,17,07,17,11.00
2016,04,17,07,18,11.00
2016,04,17,07,19,11.10
2016,04,17,07,20,11.20
2016,04,17,07,21,11.30
2016,04,17,07,22,11.30
2016,04,17,07,23,11.40
2016,04,17,07,24,11.40
2016,04,17,07,25,11.50
2016,04,17,07,26,11.60
2016,04,17,07,27,11.60
2016,04,17,07,28,11.70
2016,04,17,07,29,11.70
2016,04,17,07,30,11.70
2016,04,17,07,31,11.70
2016,04,17,07,32,11.70
2016,04,17,07,33,11.70
2016,04,17,07,34,11.80
2016,04,17,07,35,11.80
2016,04,17,07,36,11.80
2016,04,17,07,37,11.80
2016,04,17,07,38,11.80
2016,04,17,07,39,11.80
2016,04,17,07,40,11.80
2016,04,17,07,41,11.80
2016,04,17,07,42,11.80
2016,04,17,07,43,11.80
2016,04,17,07,44,11.80
2016,04,17,07,45,11.80
2016,04,17,07,46,11.80
2016,04,17,07,47,11.80
2016,04,17,07,48,11.80
2016,04,17,07,49,11.80
2016,04,17,07,50,11.90
2016,04,17,07,51,11.90
2016,04,17,07,52,11.90
2016,04,17,07,53,11.90
2016,04,17,07,54,11.90
2016,04,17,07,55,11.90
2016,04,17,07,56,12.00
2016,04,17,07,57,12.00
2016,04,17,07,58,12.00
2016,04,17,07,59,12.00
2016,04,17,08,00,12.10
2016,04,17,08,01,12.10
2016,04,17,08,02,12.10
2016,04,17,08,03,12.10
2016,04,17,08,04,12.10
2016,04,17,08,05,12.20
2016,04,17,08,06,12.20
2016,04,17,08,07,12.20
2016,04,17,08,08,12.20
2016,04,17,08,09,12.20
2016,04,17,08,10,12.30
2016,04,17,08,11,12.30
2016,04,17,08,12,12.30
2016,04,17,08,13,12.30
2016,04,17,08,14,12.30
2016,04,17,08,15,12.40
2016,04,17,08,16,12.40
2016,04,17,08,17,12.40
2016,04,17,08,18,12.40
2016,04,17,08,19,12.50
2016,04,17,08,20,12.50
2016,04,17,08,21,12.50
2016,04,17,08,22,12.60
2016,04,17,08,23,12.60
2016,04,17,08,24,12.60
2016,04,17,08,25,12.60
2016,04,17,08,26,12.70
2016,04,17,08,27,12.70
2016,04,17,08,28,12.70
2016,04,17,08,29,12.80
2016,04,17,08,30,12.80
2016,04,17,08,31,12.80
2016,04,17,08,32,12.80
2016,04,17,08,33,12.90
2016,04,17,08,34,12.90
2016,04,17,08,35,12.90
2016,04,17,08,36,12.90
2016,04,17,08,37,12.90
2016,04,17,08,38,12.90
2016,04,17,08,39,13.00
2016,04,17,08,40,13.00
2016,04,17,08,41,13.00
2016,04,17,08,42,13.10
2016,04,17,08,43,13.10
2016,04,17,08,44,13.10
2016,04,17,08,45,13.10
2016,04,17,08,46,13.10
2016,04,17,08,47,13.10
2016,04,17,08,48,13.20
2016,04,17,08,49,13.20
2016,04,17,08,50,13.20
2016,04,17,08,51,13.20
2016,04,17,08,52,13.20
2016,04,17,08,53,13.30
2016,04,17,08,54,13.30
2016,04,17,08,55,13.30
2016,04,17,08,56,13.40
2016,04,17,08,57,13.40
2016,04,17,08,58,13.50
2016,04,17,08,59,13.50
2016,04,17,09,00,13.60
2016,04,17,09,01,13.60
2016,04,17,09,02,13.60
2016,04,17,09,03,13.60
2016,04,17,09,04,13.60
2016,04,17,09,05,13.60
2016,04,17,09,06,13.60
2016,04,17,09,07,13.60
2016,04,17,09,08,13.70
2016,04,17,09,09,13.70
2016,04,17,09,10,13.70
2016,04,17,09,11,13.80
2016,04,17,09,12,13.80
2016,04,17,09,13,13.80
2016,04,17,09,14,13.90
2016,04,17,09,15,13.90
2016,04,17,09,16,13.90
2016,04,17,09,17,13.90
2016,04,17,09,18,14.00
2016,04,17,09,19,14.00
2016,04,17,09,20,14.10
2016,04,17,09,21,14.10
2016,04,17,09,22,14.10
2016,04,17,09,23,14.20
2016,04,17,09,24,14.20
2016,04,17,09,25,14.30
2016,04,17,09,26,14.30
2016,04,17,09,27,14.30
2016,04,17,09,28,14.40
2016,04,17,09,29,14.40
2016,04,17,09,30,14.40
2016,04,17,09,31,14.50
2016,04,17,09,32,14.50
2016,04,17,09,33,14.50
2016,04,17,09,34,14.50
2016,04,17,09,35,14.50
2016,04,17,09,36,14.50
2016,04,17,09,37,14.60
2016,04,17,09,38,14.60
2016,04,17,09,39,14.70
2016,04,17,09,40,14.70
2016,04,17,09,41,14.80
2016,04,17,09,42,14.80
2016,04,17,09,43,14.80
2016,04,17,09,44,14.70
2016,04,17,09,45,14.70
2016,04,17,09,46,14.70
2016,04,17,09,47,14.70
2016,04,17,09,48,14.70
2016,04,17,09,49,14.70
2016,04,17,09,50,14.80
2016,04,17,09,51,14.80
2016,04,17,09,52,14.80
2016,04,17,09,53,14.80
2016,04,17,09,54,14.80
2016,04,17,09,55,14.80
2016,04,17,09,56,14.90
2016,04,17,09,57,14.90
2016,04,17,09,58,15.00
2016,04,17,09,59,15.10
2016,04,17,10,00,15.10
2016,04,17,10,01,15.20
2016,04,17,10,02,15.30
2016,04,17,10,03,15.30
2016,04,17,10,04,15.30
2016,04,17,10,05,15.30
2016,04,17,10,06,15.30
2016,04,17,10,07,15.30
2016,04,17,10,08,15.30
2016,04,17,10,09,15.40
2016,04,17,10,10,15.40
2016,04,17,10,11,15.50
2016,04,17,10,12,15.60
2016,04,17,10,13,15.60
2016,04,17,10,14,15.60
2016,04,17,10,15,15.70
2016,04,17,10,16,15.70
2016,04,17,10,17,15.80
2016,04,17,10,18,15.90
2016,04,17,10,19,15.90
2016,04,17,10,20,16.00
2016,04,17,10,21,16.00
2016,04,17,10,22,15.90
2016,04,17,10,23,15.90
2016,04,17,10,24,15.90
2016,04,17,10,25,15.90
2016,04,17,10,26,16.00
2016,04,17,10,27,16.00
2016,04,17,10,28,16.00
2016,04,17,10,29,16.00
2016,04,17,10,30,15.90
2016,04,17,10,31,15.90
2016,04,17,10,32,15.90
2016,04,17,10,33,15.90
2016,04,17,10,34,15.90
2016,04,17,10,35,15.90
2016,04,17,10,36,15.90
2016,04,17,10,37,16.00
2016,04,17,10,38,16.10
2016,04,17,10,39,16.10
2016,04,17,10,40,16.20
2016,04,17,10,41,16.20
2016,04,17,10,42,16.20
2016,04,17,10,43,16.10
2016,04,17,10,44,16.10
2016,04,17,10,45,16.10
2016,04,17,10,46,16.10
2016,04,17,10,47,16.20
2016,04,17,10,48,16.20
2016,04,17,10,49,16.20
2016,04,17,10,50,16.10
2016,04,17,10,51,16.10
2016,04,17,10,52,16.10
2016,04,17,10,53,16.00
2016,04,17,10,54,16.00
2016,04,17,10,55,16.00
2016,04,17,10,56,16.00
2016,04,17,10,57,16.00
2016,04,17,10,58,16.00
2016,04,17,10,59,16.10
2016,04,17,11,00,16.10
2016,04,17,11,01,16.10
2016,04,17,11,02,16.10
2016,04,17,11,03,16.00
2016,04,17,11,04,16.00
2016,04,17,11,05,16.10
2016,04,17,11,06,16.00
2016,04,17,11,07,16.00
2016,04,17,11,08,16.10
2016,04,17,11,09,16.10
2016,04,17,11,10,16.20
2016,04,17,11,11,16.20
2016,04,17,11,12,16.30
2016,04,17,11,13,16.30
2016,04,17,11,14,16.30
2016,04,17,11,15,16.30
2016,04,17,11,16,16.30
2016,04,17,11,17,16.30
2016,04,17,11,18,16.30
2016,04,17,11,19,16.30
2016,04,17,11,20,16.30
2016,04,17,11,21,16.30
2016,04,17,11,22,16.40
2016,04,17,11,23,16.40
2016,04,17,11,24,16.40
2016,04,17,11,25,16.40
2016,04,17,11,26,16.40
2016,04,17,11,27,16.40
2016,04,17,11,28,16.50
2016,04,17,11,29,16.60
2016,04,17,11,30,16.60
2016,04,17,11,31,16.60
2016,04,17,11,32,16.50
2016,04,17,11,33,16.50
2016,04,17,11,34,16.50
2016,04,17,11,35,16.50
2016,04,17,11,36,16.50
2016,04,17,11,37,16.50
2016,04,17,11,38,16.60
2016,04,17,11,39,16.60
2016,04,17,11,40,16.60
2016,04,17,11,41,16.60
2016,04,17,11,42,16.60
2016,04,17,11,43,16.60
2016,04,17,11,44,16.60
2016,04,17,11,45,16.60
2016,04,17,11,46,16.60
2016,04,17,11,47,16.60
2016,04,17,11,48,16.50
2016,04,17,11,49,16.50
2016,04,17,11,50,16.50
2016,04,17,11,51,16.50
2016,04,17,11,52,16.50
2016,04,17,11,53,16.50
2016,04,17,11,54,16.50
2016,04,17,11,55,16.60
2016,04,17,11,56,16.60
2016,04,17,11,57,16.60
2016,04,17,11,58,16.60
2016,04,17,11,59,16.60
2016,04,17,12,00,16.60
2016,04,17,12,01,16.60
2016,04,17,12,02,16.60
2016,04,17,12,03,16.60
2016,04,17,12,04,16.60
2016,04,17,12,05,16.50
2016,04,17,12,06,16.50
2016,04,17,12,07,16.50
2016,04,17,12,08,16.50
2016,04,17,12,09,16.60
2016,04,17,12,10,16.60
2016,04,17,12,11,16.60
2016,04,17,12,12,16.70
2016,04,17,12,13,16.60
2016,04,17,12,14,16.70
2016,04,17,12,15,16.70
2016,04,17,12,16,16.80
2016,04,17,12,17,16.80
2016,04,17,12,18,16.80
2016,04,17,12,19,16.80
2016,04,17,12,20,16.90
2016,04,17,12,21,17.00
2016,04,17,12,22,17.10
2016,04,17,12,23,17.10
2016,04,17,12,24,17.20
2016,04,17,12,25,17.20
2016,04,17,12,26,17.20
2016,04,17,12,27,17.20
2016,04,17,12,28,17.20
2016,04,17,12,29,17.20
2016,04,17,12,30,17.30
2016,04,17,12,31,17.40
2016,04,17,12,32,17.50
2016,04,17,12,33,17.60
2016,04,17,12,34,17.60
2016,04,17,12,35,17.60
2016,04,17,12,36,17.60
2016,04,17,12,37,17.50
2016,04,17,12,38,17.50
2016,04,17,12,39,17.50
2016,04,17,12,40,17.50
2016,04,17,12,41,17.50
2016,04,17,12,42,17.50
2016,04,17,12,43,17.50
2016,04,17,12,44,17.60
2016,04,17,12,45,17.60
2016,04,17,12,46,17.70
2016,04,17,12,47,17.80
2016,04,17,12,48,17.80
2016,04,17,12,49,17.90
2016,04,17,12,50,17.90
2016,04,17,12,51,17.90
2016,04,17,12,52,17.80
2016,04,17,12,53,17.80
2016,04,17,12,54,17.70
2016,04,17,12,55,17.70
2016,04,17,12,56,17.80
2016,04,17,12,57,17.80
2016,04,17,12,58,17.90
2016,04,17,12,59,18.00
2016,04,17,13,00,18.00
2016,04,17,13,01,18.10
2016,04,17,13,02,18.20
2016,04,17,13,03,18.30
2016,04,17,13,04,18.30
2016,04,17,13,05,18.30
2016,04,17,13,06,18.20
2016,04,17,13,07,18.20
2016,04,17,13,08,18.20
2016,04,17,13,09,18.30
2016,04,17,13,10,18.30
2016,04,17,13,11,18.30
2016,04,17,13,12,18.30
2016,04,17,13,13,18.30
2016,04,17,13,14,18.30
2016,04,17,13,15,18.30
2016,04,17,13,16,18.30
2016,04,17,13,17,18.30
2016,04,17,13,18,18.30
2016,04,17,13,19,18.40
2016,04,17,13,20,18.50
2016,04,17,13,21,18.50
2016,04,17,13,22,18.60
2016,04,17,13,23,18.60
2016,04,17,13,24,18.60
2016,04,17,13,25,18.60
2016,04,17,13,26,18.60
2016,04,17,13,27,18.60
2016,04,17,13,28,18.60
2016,04,17,13,29,18.60
2016,04,17,13,30,18.60
2016,04,17,13,31,18.70
2016,04,17,13,32,18.80
2016,04,17,13,33,18.80
2016,04,17,13,34,18.90
2016,04,17,13,35,19.00
2016,04,17,13,36,19.00
2016,04,17,13,37,19.00
2016,04,17,13,38,18.90
2016,04,17,13,39,18.80
2016,04,17,13,40,18.70
2016,04,17,13,41,18.70
2016,04,17,13,42,18.70
2016,04,17,13,43,18.70
2016,04,17,13,44,18.80
2016,04,17,13,45,18.80
2016,04,17,13,46,18.80
2016,04,17,13,47,18.70
2016,04,17,13,48,18.70
2016,04,17,13,49,18.70
2016,04,17,13,50,18.70
2016,04,17,13,51,18.70
2016,04,17,13,52,18.70
2016,04,17,13,53,18.70
2016,04,17,13,54,18.70
2016,04,17,13,55,18.70
2016,04,17,13,56,18.80
2016,04,17,13,57,18.80
2016,04,17,13,58,18.90
2016,04,17,13,59,18.90
2016,04,17,14,00,19.00
2016,04,17,14,01,19.10
2016,04,17,14,02,19.20
2016,04,17,14,03,19.40
2016,04,17,14,04,19.50
2016,04,17,14,05,19.50
2016,04,17,14,06,19.50
2016,04,17,14,07,19.40
2016,04,17,14,08,19.40
2016,04,17,14,09,19.40
2016,04,17,14,10,19.40
2016,04,17,14,11,19.30
2016,04,17,14,12,19.40
2016,04,17,14,13,19.40
2016,04,17,14,14,19.30
2016,04,17,14,15,19.30
2016,04,17,14,16,19.30
2016,04,17,14,17,19.20
2016,04,17,14,18,19.20
2016,04,17,14,19,19.30
2016,04,17,14,20,19.30
2016,04,17,14,21,19.40
2016,04,17,14,22,19.50
2016,04,17,14,23,19.60
2016,04,17,14,24,19.70
2016,04,17,14,25,19.70
2016,04,17,14,26,19.70
2016,04,17,14,27,19.70
2016,04,17,14,28,19.80
2016,04,17,14,29,19.80
2016,04,17,14,30,19.80
2016,04,17,14,31,19.80
2016,04,17,14,32,19.80
2016,04,17,14,33,19.90
2016,04,17,14,34,19.90
2016,04,17,14,35,20.00
2016,04,17,14,36,20.10
2016,04,17,14,37,20.20
2016,04,17,14,38,20.20
2016,04,17,14,39,20.20
2016,04,17,14,40,20.10
2016,04,17,14,41,20.10
2016,04,17,14,42,20.10
2016,04,17,14,43,20.10
2016,04,17,14,44,20.20
2016,04,17,14,45,20.20
2016,04,17,14,46,20.20
2016,04,17,14,47,20.10
2016,04,17,14,48,20.10
2016,04,17,14,49,20.10
2016,04,17,14,50,20.10
2016,04,17,14,51,20.10
2016,04,17,14,52,20.10
2016,04,17,14,53,20.10
2016,04,17,14,54,20.20
2016,04,17,14,55,20.20
2016,04,17,14,56,20.20
2016,04,17,14,57,20.30
2016,04,17,14,58,20.30
2016,04,17,14,59,20.30
2016,04,17,15,00,20.30
2016,04,17,15,01,20.30
2016,04,17,15,02,20.30
2016,04,17,15,03,20.30
2016,04,17,15,04,20.30
2016,04,17,15,05,20.30
2016,04,17,15,06,20.30
2016,04,17,15,07,20.40
2016,04,17,15,08,20.40
2016,04,17,15,09,20.40
2016,04,17,15,10,20.40
2016,04,17,15,11,20.50
2016,04,17,15,12,20.60
2016,04,17,15,13,20.70
2016,04,17,15,14,20.70
2016,04,17,15,15,20.70
2016,04,17,15,16,20.70
2016,04,17,15,17,20.70
2016,04,17,15,18,20.70
2016,04,17,15,19,20.70
2016,04,17,15,20,20.70
2016,04,17,15,21,20.70
2016,04,17,15,22,20.70
2016,04,17,15,23,20.70
2016,04,17,15,24,20.60
2016,04,17,15,25,20.60
2016,04,17,15,26,20.60
2016,04,17,15,27,20.60
2016,04,17,15,28,20.60
2016,04,17,15,29,20.60
2016,04,17,15,30,20.60
2016,04,17,15,31,20.70
2016,04,17,15,32,20.70
2016,04,17,15,33,20.70
2016,04,17,15,34,20.80
2016,04,17,15,35,20.80
2016,04,17,15,36,20.90
2016,04,17,15,37,20.90
2016,04,17,15,38,21.00
2016,04,17,15,39,21.10
2016,04,17,15,40,21.00
2016,04,17,15,41,21.00
2016,04,17,15,42,20.90
2016,04,17,15,43,20.90
2016,04,17,15,44,20.80
2016,04,17,15,45,20.80
2016,04,17,15,46,20.80
2016,04,17,15,47,20.80
2016,04,17,15,48,20.80
2016,04,17,15,49,20.80
2016,04,17,15,50,20.70
2016,04,17,15,51,20.70
2016,04,17,15,52,20.70
2016,04,17,15,53,20.70
2016,04,17,15,54,20.70
2016,04,17,15,55,20.70
2016,04,17,15,56,20.70
2016,04,17,15,57,20.70
2016,04,17,15,58,20.70
2016,04,17,15,59,20.80
2016,04,17,16,00,20.80
2016,04,17,16,01,20.80
2016,04,17,16,02,20.90
2016,04,17,16,03,20.90
2016,04,17,16,04,21.00
2016,04,17,16,05,21.10
2016,04,17,16,06,21.20
2016,04,17,16,07,21.30
2016,04,17,16,08,21.30
2016,04,17,16,09,21.20
2016,04,17,16,10,21.10
2016,04,17,16,11,21.10
2016,04,17,16,12,21.00
2016,04,17,16,13,21.00
2016,04,17,16,14,20.90
2016,04,17,16,15,20.80
2016,04,17,16,16,20.80
2016,04,17,16,17,20.70
2016,04,17,16,18,20.70
2016,04,17,16,19,20.70
2016,04,17,16,20,20.60
2016,04,17,16,21,20.70
2016,04,17,16,22,20.70
2016,04,17,16,23,20.70
2016,04,17,16,24,20.80
2016,04,17,16,25,20.90
2016,04,17,16,26,20.90
2016,04,17,16,27,21.00
2016,04,17,16,28,21.00
2016,04,17,16,29,20.90
2016,04,17,16,30,20.90
2016,04,17,16,31,20.90
2016,04,17,16,32,20.90
2016,04,17,16,33,20.90
2016,04,17,16,34,20.90
2016,04,17,16,35,20.90
2016,04,17,16,36,20.90
2016,04,17,16,37,20.90
2016,04,17,16,38,20.90
2016,04,17,16,39,20.90
2016,04,17,16,40,20.90
2016,04,17,16,41,20.90
2016,04,17,16,42,21.00
2016,04,17,16,43,21.00
2016,04,17,16,44,21.00
2016,04,17,16,45,21.00
2016,04,17,16,46,21.00
2016,04,17,16,47,21.00
2016,04,17,16,48,21.10
2016,04,17,16,49,21.10
2016,04,17,16,50,21.10
2016,04,17,16,51,21.10
2016,04,17,16,52,21.10
2016,04,17,16,53,21.10
2016,04,17,16,54,21.10
2016,04,17,16,55,21.10
2016,04,17,16,56,21.00
2016,04,17,16,57,21.00
2016,04,17,16,58,20.90
2016,04,17,16,59,20.90
2016,04,17,17,00,20.90
2016,04,17,17,01,20.80
2016,04,17,17,02,20.80
2016,04,17,17,03,20.90
2016,04,17,17,04,20.90
2016,04,17,17,05,20.90
2016,04,17,17,06,20.90
2016,04,17,17,07,20.90
2016,04,17,17,08,21.00
2016,04,17,17,09,21.00
2016,04,17,17,10,21.10
2016,04,17,17,11,21.20
2016,04,17,17,12,21.20
2016,04,17,17,13,21.30
2016,04,17,17,14,21.30
2016,04,17,17,15,21.30
2016,04,17,17,16,21.30
2016,04,17,17,17,21.30
2016,04,17,17,18,21.30
2016,04,17,17,19,21.30
2016,04,17,17,20,21.30
2016,04,17,17,21,21.30
2016,04,17,17,22,21.20
2016,04,17,17,23,21.20
2016,04,17,17,24,21.10
2016,04,17,17,25,21.10
2016,04,17,17,26,21.00
2016,04,17,17,27,21.00
2016,04,17,17,28,21.00
2016,04,17,17,29,21.00